Location: Caltech
(34.1382°N, 118.1253°W)
Time: 23:52:08
(UTC-08:00)

ALOS - Visible Passes

Search period start: 24 February 2018 00:00
Search period end: 06 March 2018 00:00
Orbit: 684 x 686 km, 97.8° (Epoch: 24 February)

Date Brightness Start Highest point End Pass type
(mag) Time Alt. Az. Time Alt. Az. Time Alt. Az.
24 Feb 5.8 05:42:01 10° ENE 05:44:27 14° E 05:46:53 10° SE visible
24 Feb 2.6 18:16:57 10° S 18:21:36 74° W 18:26:17 10° NNW visible
25 Feb 4.5 18:55:09 10° SSW 18:59:07 27° W 19:03:06 10° NW visible
26 Feb 5.9 19:36:28 10° W 19:36:50 10° W 19:37:11 10° W visible
27 Feb 5.4 05:55:55 10° NE 05:59:26 21° E 06:02:55 10° SE visible
27 Feb 3.4 18:31:58 10° S 18:36:28 49° W 18:41:00 10° NNW visible
28 Feb 5.2 19:10:49 10° SW 19:14:04 19° W 19:17:20 10° NW visible
01 Mar 6.1 05:35:05 10° ENE 05:36:40 12° E 05:38:16 10° ESE visible
01 Mar 2.3 18:09:13 10° SSE 18:13:53 88° WSW 18:18:35 10° NNW visible
02 Mar 4.2 18:47:11 10° SSW 18:51:22 32° W 18:55:34 10° NNW visible
03 Mar 5.6 19:27:05 10° WSW 19:29:02 12° W 19:31:00 10° WNW visible
04 Mar 5.6 05:48:32 10° NE 05:51:40 18° E 05:54:45 10° SE visible
04 Mar 3.0 18:24:09 10° S 18:28:44 59° W 18:33:21 10° NNW visible
05 Mar 4.9 19:02:41 10° SSW 19:06:18 22° W 19:09:56 10° NW visible
